Location: Oracle State Park
(32.6095°N, 110.7330°W)
Time: 23:12:08
(UTC-07:00)

Tiangong 2 - Visible Passes

Search period start: 22 March 2019 00:00
Search period end: 01 April 2019 00:00
Orbit: 380 x 390 km, 42.8° (Epoch: 22 March)

Date Brightness Start Highest point End Pass type
(mag) Time Alt. Az. Time Alt. Az. Time Alt. Az.
22 Mar 1.5 05:24:08 16° NW 05:26:33 60° NNE 05:29:41 10° ESE visible
23 Mar 3.1 04:27:47 28° NE 04:27:47 28° NE 04:29:54 10° E visible
24 Mar 1.0 05:03:51 55° W 05:04:17 65° SW 05:07:25 10° SE visible
25 Mar 4.4 04:07:50 11° ESE 04:07:50 11° ESE 04:07:55 10° ESE visible
25 Mar 3.0 05:40:06 13° WSW 05:41:16 15° SW 05:43:08 10° S visible
26 Mar 3.6 04:44:16 13° SSE 04:44:16 13° SSE 04:44:44 10° SSE visible
27 Mar 3.4 20:11:18 10° SSW 20:12:07 16° SSW 20:12:07 16° SSW visible
28 Mar 2.9 19:12:47 10° S 19:14:46 16° SE 19:16:24 12° ESE visible
28 Mar 4.1 20:48:12 10° WSW 20:48:41 14° WSW 20:48:41 14° WSW visible
29 Mar 0.9 19:48:38 10° SW 19:51:44 72° SSE 19:52:46 38° ENE visible
30 Mar 2.7 20:26:11 10° W 20:28:57 30° NNW 20:28:57 30° NNW visible
31 Mar 1.7 19:26:18 10° WSW 19:29:23 54° NNW 19:32:27 10° NE visible
31 Mar 4.5 21:04:33 10° NW 21:04:56 12° NW 21:04:56 12° NW visible
